Theta_e
325 333 334 327 333 331 331 327 324 329 329 326 329 331 336 335 335 332 334 334 331 320 329 335 334 334 332 329 326 326 331 332 331 331 329 329 328 330 329 329 328 328 328 328 327 327 324 321 319
332 336 327 325 332 338 334 323 328 327 331 331 330 333 336 340 333 335 335 335 326 321 334 335 334 335 334 329 325 326 331 332 333 331 329 327 327 329 330 328 330 330 329 329 328 325 324 322 323
333 328 326 330 330 336 334 323 326 331 328 327 333 332 335 337 333 333 334 333 325 328 334 334 334 334 330 327 323 325 327 333 333 329 328 327 325 329 329 329 329 332 331 330 324 324 324 324 324
324 321 320 330 331 329 326 323 328 329 328 330 331 337 333 333 334 334 336 330 325 330 335 333 332 330 329 326 325 324 331 332 328 329 329 328 325 321 324 328 329 327 323 323 324 323 323 323 325
320 319 326 329 329 326 325 322 328 326 330 330 330 338 337 334 334 336 333 328 324 332 334 332 332 332 330 326 329 325 325 326 328 327 327 325 323 322 322 321 320 321 322 323 324 323 323 324 325
321 320 326 329 327 327 324 323 323 326 328 331 335 336 336 333 335 337 330 327 324 327 333 332 331 329 326 326 333 328 327 329 329 329 328 326 325 324 322 322 323 324 324 324 324 322 323 323 325
321 326 327 324 326 329 325 321 325 328 330 332 331 337 335 333 332 333 330 331 325 325 332 332 330 326 324 332 334 331 326 327 327 326 327 326 325 326 325 326 325 325 324 324 322 323 323 322 322
316 323 326 325 329 330 323 322 322 327 327 326 327 335 338 333 335 332 333 332 326 325 328 329 325 322 327 333 332 327 324 324 325 326 326 326 326 325 324 325 325 324 324 324 323 323 323 323 323
312 321 327 327 327 327 321 324 321 322 329 326 327 329 330 333 333 333 333 329 327 325 323 322 321 322 323 326 324 323 322 323 324 325 325 325 325 324 324 324 325 324 324 323 323 323 323 324 324
315 319 322 321 323 324 322 324 324 329 327 329 328 330 332 333 332 332 330 329 329 326 325 323 323 323 323 323 323 324 324 323 323 324 325 325 324 323 324 324 325 325 325 325 325 326 325 324 325
311 318 317 321 322 321 322 323 322 327 328 326 329 331 332 332 330 330 330 329 328 327 326 325 325 325 325 326 326 326 326 325 325 325 326 325 325 325 325 325 325 325 326 326 325 326 326 327 326
314 312 318 323 324 322 323 322 325 326 325 322 325 331 332 331 330 330 330 330 330 329 327 326 326 326 327 327 327 326 326 325 325 326 327 326 326 325 326 326 326 327 325 325 322 322 322 323 326
314 318 320 319 320 322 321 324 324 324 323 325 330 332 332 332 332 332 331 330 331 331 329 328 328 328 328 328 327 325 325 326 326 327 327 327 326 326 327 326 326 324 323 322 322 321 321 321 324
317 319 319 317 319 320 324 323 324 323 327 330 331 332 332 332 332 331 332 332 332 332 330 329 329 329 329 329 328 326 327 327 327 328 328 328 327 328 327 326 326 323 323 322 323 322 320 320 323
320 320 317 318 318 321 320 326 324 320 328 332 331 331 330 331 331 331 332 332 333 333 332 330 330 330 329 328 330 329 328 328 328 329 329 329 329 329 327 325 323 322 321 321 320 319 321 322 321
320 321 322 317 317 317 321 330 323 322 330 332 330 330 330 329 330 330 332 332 333 333 333 332 331 330 330 329 330 331 331 330 330 330 329 330 329 327 324 323 320 319 318 318 317 318 318 320 318
317 328 320 319 316 317 322 328 320 321 327 330 329 329 330 329 328 330 331 332 332 333 333 333 332 332 331 331 331 332 331 330 330 329 328 327 325 323 318 316 316 316 316 317 317 318 318 318 316
320 317 319 322 318 316 318 318 313 317 326 328 328 327 328 329 330 329 331 332 332 333 333 333 333 333 333 332 332 329 329 328 327 326 324 322 318 314 313 314 315 316 315 312 312 315 316 315 314
317 313 320 313 313 316 319 318 312 313 318 324 325 325 326 326 325 328 330 331 331 332 332 333 333 333 333 332 330 326 325 324 323 322 320 316 313 314 315 314 312 311 308 305 307 314 314 313 312
315 317 315 313 310 315 315 316 312 310 312 315 321 323 325 321 317 319 324 328 330 331 332 332 333 333 333 333 331 328 323 318 318 318 314 312 313 314 312 310 308 304 300 299 300 308 312 311 311
318 322 318 316 310 308 311 315 311 309 309 309 310 314 317 321 320 314 315 321 326 328 330 331 332 332 332 332 329 325 320 319 315 311 312 311 310 310 309 306 301 298 297 297 297 298 305 309 306
313 313 314 313 316 318 307 322 310 309 308 308 310 308 310 311 310 311 313 314 319 324 326 328 329 330 330 329 328 326 324 316 313 310 310 309 308 307 304 300 298 297 297 297 297 297 297 297 298
315 311 317 314 314 313 310 313 311 304 307 307 308 308 307 307 306 308 311 314 315 317 320 322 324 326 327 327 326 324 322 316 313 310 308 307 306 304 300 297 297 297 296 296 296 296 296 296 296
309 309 309 308 312 316 311 311 311 307 308 308 306 304 305 303 303 306 310 312 313 314 316 318 321 323 324 324 323 322 320 315 311 308 307 306 304 300 296 296 296 296 296 295 295 295 295 294 294
311 315 319 320 316 318 304 309 310 309 304 305 305 303 303 301 301 306 306 306 309 311 313 315 318 320 321 320 318 318 316 315 313 310 308 305 302 297 296 296 296 295 295 294 294 294 293 292 292
314 312 320 322 317 312 305 311 312 304 304 301 302 303 303 303 302 304 304 306 307 309 310 312 314 314 315 316 316 316 316 315 312 310 308 306 301 296 296 295 295 295 294 294 293 293 292 291 291
316 317 310 308 301 311 308 306 305 302 301 302 304 304 304 303 302 303 303 305 306 307 309 310 311 312 313 314 314 314 314 313 311 308 307 304 297 296 295 295 294 294 294 293 292 292 292 291 290
314 309 319 316 310 312 308 305 312 306 307 303 305 304 303 302 301 301 301 303 305 306 307 307 308 309 310 311 313 313 313 311 309 308 307 302 296 295 295 294 294 294 293 293 292 291 291 290 289
313 316 316 315 310 315 313 310 300 304 304 305 304 304 303 302 301 300 300 302 304 304 304 304 305 306 307 309 311 312 311 308 307 307 305 299 295 295 294 294 294 293 293 292 291 291 290 289 289
309 315 314 321 315 304 308 312 300 300 301 301 303 304 304 302 301 299 299 300 300 301 301 303 304 305 306 308 309 309 308 307 306 304 302 297 295 294 294 294 293 293 292 292 291 291 290 289 288
Wind_Speed
14 19 17 4 2 3 1 3 2 4 4 1 4 5 5 2 3 1 7 16 19 22 21 16 17 17 14 13 11 11 12 13 13 13 13 13 12 12 14 12 12 12 12 12 13 13 13 13 12
19 16 3 2 3 1 3 2 7 5 4 9 5 3 3 2 2 7 14 11 21 23 21 19 19 19 17 13 11 11 12 13 14 12 12 12 12 12 11 11 10 12 12 11 12 12 13 12 12
10 5 3 3 3 3 3 4 5 4 7 2 4 4 3 5 3 16 5 21 22 22 20 21 19 18 15 12 11 12 13 13 12 11 12 12 13 13 11 12 10 10 11 11 11 11 12 12 11
6 2 3 3 4 4 3 4 5 8 1 2 4 7 2 3 14 10 18 24 23 22 20 20 19 16 14 12 13 13 14 11 11 11 11 11 12 12 12 11 11 9 8 10 10 10 11 11 11
3 2 2 3 4 2 1 4 9 5 5 3 2 5 4 4 7 16 24 23 22 21 20 18 16 14 12 13 13 13 13 11 10 9 10 10 11 11 10 10 9 8 8 8 9 9 9 10 10
2 2 2 4 3 2 1 6 6 3 3 4 5 5 4 5 17 22 23 22 20 21 19 17 14 13 11 12 12 10 11 10 9 8 6 8 9 9 9 8 8 8 8 8 8 8 8 8 8
5 3 4 4 5 2 5 6 6 5 6 4 8 5 2 8 16 25 24 21 18 18 18 17 14 13 14 14 13 10 9 9 7 7 6 6 7 9 9 9 9 8 8 8 7 7 8 9 9
4 3 3 3 5 5 6 6 5 5 4 2 2 6 7 11 21 25 24 21 18 18 17 16 14 14 15 14 12 9 8 8 6 6 7 5 6 7 7 7 8 8 8 8 8 7 7 7 8
4 3 3 5 7 4 6 5 3 2 6 1 3 5 5 25 27 24 22 19 19 18 18 17 16 15 14 13 11 9 7 6 6 5 5 4 4 4 5 6 6 6 6 6 6 6 6 7 7
4 4 8 5 6 6 8 5 9 5 4 2 2 4 20 27 25 22 20 18 17 20 20 19 17 16 14 12 10 9 7 6 6 5 5 5 3 4 3 4 5 5 6 7 8 9 10 10 8
6 6 4 3 4 7 10 7 5 11 3 7 10 12 21 23 21 20 20 19 19 18 20 20 17 15 13 12 10 9 8 7 7 6 5 4 3 2 3 4 6 7 8 8 9 10 12 10 9
4 3 4 1 3 5 11 10 5 6 6 3 10 19 23 20 22 22 20 19 19 21 22 21 18 17 14 11 10 9 9 9 7 6 4 4 2 1 4 6 7 7 8 8 11 14 14 14 12
4 3 3 2 3 1 8 6 7 7 3 7 16 17 20 20 21 19 18 18 22 22 22 22 20 18 15 13 11 11 10 7 5 5 5 6 5 4 5 6 5 7 8 10 11 11 13 13 10
1 4 4 3 2 3 5 3 7 5 5 10 15 16 14 18 22 17 21 23 24 22 22 22 21 19 17 15 13 12 10 8 7 6 6 6 7 7 7 6 8 10 9 9 10 7 5 7 5
4 1 3 2 2 3 4 2 7 4 7 12 11 13 12 13 18 23 24 24 27 24 22 22 22 20 19 17 14 12 10 10 10 9 8 8 7 8 7 7 8 8 7 6 5 4 4 5 7
5 1 2 2 4 2 3 13 5 6 12 11 9 10 11 12 20 19 23 25 25 24 23 22 22 21 20 19 15 12 10 11 10 9 7 6 6 6 7 8 7 6 6 6 5 4 4 5 8
2 5 4 2 1 3 4 4 5 5 7 9 9 10 11 9 9 20 25 27 26 25 24 24 24 22 21 19 17 14 11 9 8 7 6 5 5 6 5 5 4 4 4 5 3 3 4 8 8
6 7 5 7 4 3 4 2 2 5 7 12 10 8 9 10 16 20 24 24 25 25 25 24 25 24 23 21 18 15 13 11 8 7 5 4 4 3 2 2 4 4 4 3 3 5 8 7 6
13 10 14 3 1 3 6 3 5 4 3 7 8 8 10 11 5 14 20 22 22 24 25 26 26 28 27 25 21 17 15 13 10 8 6 4 2 1 2 3 4 4 3 5 5 8 10 7 4
14 14 3 2 2 2 2 7 4 5 5 7 8 10 13 5 6 10 15 20 24 26 27 28 29 31 31 29 26 21 20 12 9 9 6 5 3 4 4 4 4 5 7 7 7 6 6 6 3
14 20 11 5 3 4 2 6 5 5 4 4 7 7 7 12 12 7 16 21 23 28 30 32 33 33 32 33 28 19 16 11 13 11 9 8 6 6 5 5 6 6 6 7 8 7 8 8 5
6 6 13 10 5 6 2 9 5 6 7 6 9 10 11 10 7 6 15 20 26 29 29 31 33 34 35 33 29 27 22 15 13 15 12 10 9 8 7 6 6 6 7 7 8 8 8 7 6
1 4 13 5 6 2 4 1 6 2 7 9 14 14 12 11 9 10 16 24 23 24 25 27 30 32 33 30 29 24 17 13 13 16 15 13 11 9 8 8 8 7 7 8 9 10 10 9 10
6 8 9 6 5 6 9 8 6 6 7 6 9 10 11 9 8 8 14 16 17 18 21 24 27 29 28 28 26 23 19 17 18 18 17 15 13 11 10 8 8 8 8 9 9 10 10 10 10
3 11 3 1 4 8 2 4 7 5 7 6 8 9 8 6 7 7 8 16 20 21 23 25 27 27 26 25 23 20 19 17 19 19 20 18 16 14 11 9 8 9 9 9 9 9 10 10 9
5 3 6 8 7 5 2 7 6 7 4 5 4 3 4 6 5 7 9 17 22 24 24 25 25 23 22 22 20 18 18 18 19 19 20 18 15 14 12 11 10 9 8 8 7 8 8 8 8
7 5 2 6 2 3 4 4 9 6 9 7 7 5 6 5 4 6 8 17 22 23 24 23 22 21 19 18 18 19 19 20 20 20 19 18 16 15 14 11 10 9 8 7 6 6 6 6 7
3 4 2 1 4 3 3 3 5 5 9 7 7 7 6 5 5 5 8 17 21 22 21 20 19 19 18 17 18 19 19 20 20 21 21 20 18 17 15 13 11 10 9 7 6 5 5 5 5
3 4 1 0 3 4 4 5 7 7 6 8 6 7 7 6 6 5 7 14 18 18 19 18 17 17 17 18 18 19 20 20 21 21 21 19 18 17 15 13 12 10 8 7 6 4 4 4 4
2 5 6 5 5 1 2 5 1 2 3 4 5 7 6 6 7 7 10 13 16 17 17 18 18 18 17 17 18 19 20 21 21 21 20 19 17 16 14 13 12 11 9 8 6 6 5 4 3
Wind_Direction
151 147 142 113 82 71 248 227 154 137 148 168 126 147 171 68 155 181 155 167 160 153 151 157 162 151 147 133 119 110 109 106 103 97 90 89 94 101 99 93 89 86 79 76 68 58 54 55 53
141 146 121 99 102 95 263 183 180 177 134 125 92 90 82 102 99 118 142 171 162 154 150 145 154 152 148 138 125 115 112 112 108 92 88 89 88 92 94 95 87 88 75 75 60 53 55 54 53
147 177 105 112 117 183 218 198 158 124 138 131 107 46 119 133 128 149 166 160 160 155 154 150 149 151 149 141 129 120 116 112 111 93 89 85 82 86 85 84 89 85 73 68 51 54 52 50 47
181 35 40 112 207 242 205 183 146 135 81 86 126 85 70 217 147 172 154 159 161 157 155 154 154 154 152 144 133 124 121 124 108 100 92 87 84 83 84 88 91 83 54 58 53 47 43 41 41
128 64 101 140 224 243 228 162 153 137 135 134 163 155 97 140 172 153 154 161 163 160 161 160 159 156 152 146 139 134 135 127 108 100 101 93 86 82 80 79 74 65 57 50 43 38 35 36 42
67 111 109 194 218 237 170 161 141 107 136 141 102 113 145 161 144 150 156 163 165 165 166 164 167 166 160 155 154 144 140 134 136 133 97 96 81 74 71 67 60 48 40 36 33 33 31 33 34
144 123 205 174 194 186 190 155 160 145 134 203 154 111 122 169 161 158 157 162 165 168 167 171 170 165 158 160 167 155 154 152 131 125 133 104 77 71 68 55 50 47 38 36 32 31 30 34 32
120 113 136 206 180 213 168 153 160 147 173 115 142 166 174 182 164 160 158 162 167 169 174 175 174 168 166 161 169 166 157 152 142 132 131 115 92 73 70 57 53 48 43 42 40 35 23 15 11
132 88 182 211 156 184 164 141 176 114 120 134 151 152 162 157 162 155 156 159 168 173 175 176 174 171 171 169 167 163 158 156 154 144 139 120 98 89 70 62 46 37 32 29 22 9 359 349 345
127 154 205 207 182 180 175 153 152 136 124 152 131 57 139 151 158 159 165 168 174 178 180 181 178 174 173 170 168 164 161 158 159 149 139 127 110 104 75 36 18 6 4 0 354 349 344 334 337
171 192 198 233 203 163 153 148 155 127 222 203 184 155 152 158 166 169 175 178 180 182 182 184 182 179 178 176 176 176 174 171 164 151 144 139 125 55 0 345 345 347 348 348 350 358 355 341 304
148 211 167 3 156 159 163 127 155 175 200 202 169 159 159 168 175 177 179 179 182 186 187 185 186 185 182 184 184 182 176 170 167 172 179 194 220 301 331 335 341 346 342 355 350 343 354 357 354
164 137 105 4 220 64 133 158 179 199 33 109 130 156 169 173 180 184 185 187 188 190 191 190 190 191 188 187 184 179 176 179 190 213 231 251 264 289 312 319 333 335 330 326 317 320 334 333 339
15 111 94 43 180 117 135 139 135 219 131 121 147 167 176 180 183 179 189 192 194 194 195 195 196 196 194 192 189 190 195 208 225 242 258 262 257 267 288 300 314 318 306 302 308 313 320 343 9
56 125 77 131 226 139 142 46 217 147 150 150 168 173 177 190 186 193 194 194 197 199 197 199 200 199 199 200 200 206 214 226 239 245 250 251 260 274 291 308 318 317 314 322 332 357 29 50 76
140 323 114 165 153 157 168 211 227 163 153 175 173 179 181 197 202 199 201 203 202 202 200 200 200 199 201 204 209 214 223 232 239 232 236 241 260 283 300 308 316 328 335 344 5 48 70 81 86
0 148 205 322 106 146 180 211 187 171 165 180 190 191 192 195 201 207 205 208 206 206 204 203 204 203 204 207 212 218 223 222 217 212 218 236 265 288 303 315 344 5 20 33 48 70 109 106 88
152 130 239 216 212 130 169 224 182 183 173 195 200 197 198 201 214 205 208 209 211 210 210 209 206 207 208 208 209 203 196 196 205 210 216 240 265 290 325 34 54 50 40 43 74 92 112 104 89
144 140 188 177 325 190 197 214 198 187 188 207 209 207 216 215 219 210 208 210 209 211 211 212 208 208 206 201 196 193 191 190 193 199 218 227 232 167 102 88 74 67 59 62 89 109 109 103 83
149 164 126 10 18 135 151 241 226 198 220 207 207 217 220 188 185 193 195 204 208 211 211 212 211 210 208 208 203 203 199 190 188 189 194 187 165 137 117 104 97 89 77 77 82 127 128 122 143
184 184 165 163 131 63 140 272 193 232 227 207 221 226 227 212 209 192 200 206 210 212 212 213 213 212 208 207 202 193 178 175 190 190 178 167 153 138 130 121 106 99 96 92 90 104 146 152 125
180 171 153 128 123 217 324 244 232 205 215 219 227 219 229 215 210 190 203 213 216 218 216 216 214 212 209 207 203 200 186 182 198 192 174 163 153 149 143 131 123 115 107 106 97 96 111 122 127
44 117 169 117 95 35 312 234 261 126 218 228 230 227 224 220 201 205 204 216 220 221 217 213 211 208 207 203 205 199 194 193 192 183 172 166 162 160 154 145 133 124 111 99 93 91 94 97 94
148 94 64 53 113 229 202 186 247 196 199 213 224 227 222 214 212 209 213 210 206 203 202 202 200 199 198 197 198 201 203 189 183 178 175 171 166 160 155 143 133 122 110 106 101 95 91 89 88
107 148 104 166 185 217 246 178 239 248 230 212 205 210 216 216 206 188 180 180 185 184 183 183 185 184 189 194 198 199 200 199 195 189 185 176 172 166 157 151 139 126 118 109 101 96 93 93 97
152 178 164 182 196 175 101 223 237 215 262 236 221 224 214 200 199 197 186 180 180 180 178 178 180 181 187 194 196 198 201 199 198 196 187 183 177 170 165 159 146 135 122 112 109 108 104 95 86
161 196 140 102 2 85 195 279 301 229 253 235 223 200 210 220 204 200 184 184 182 181 182 181 181 185 187 190 192 195 196 196 197 189 185 182 177 173 168 158 153 142 135 126 115 113 109 98 92
67 125 138 329 129 213 280 264 227 232 226 198 221 223 213 198 193 186 186 187 188 188 186 185 188 189 189 193 198 199 198 198 192 187 186 184 179 175 169 165 160 154 150 152 149 131 113 110 103
123 155 92 293 155 174 156 247 218 209 220 215 198 204 200 196 198 193 193 193 193 191 189 186 185 186 190 195 196 197 194 191 189 189 188 186 181 176 172 169 167 163 163 167 157 144 153 149 130
74 166 176 178 203 88 141 285 123 215 296 276 238 198 182 182 188 179 178 185 188 191 189 188 189 192 194 194 192 190 188 188 189 190 188 185 180 176 177 177 175 179 179 176 181 184 187 187 177